Location: Amsterdam
(30.7274°N, 84.4357°W)
Time: 12:22:07
(UTC+00:00)

Tiros 1 - Pass Details

Date: 18 February 2026
Orbit: 618 x 650 km, 48.4° (Epoch: 16 March)

Event Time Altitude Azimuth Distance (km) Brightness Sun altitude
Rises 13:07:27 0° 232° (SW) 2,916 10.2 9.9°
Reaches altitude 10° 13:09:46 10° 234° (SW) 2,005 9.4 10.4°
Maximum altitude 13:14:23 75° 319° (NW) 651 7.2 11.3°
Drops below altitude 10° 13:18:58 10° 46° (NE) 1,993 10.1 12.2°
Sets 13:21:17 0° 48° (NE) 2,897 10.9 12.7°
